Change the Weather History Date:

Saturday, December 8, 2012

  Actual Average Record
Temperature  
Mean Temperature 40 °F -  
Max Temperature 46 °F 42 °F 53 °F (2013)
Min Temperature 33 °F 34 °F 19 °F (2010)
Degree Days  
Heating Degree Days 26    
Moisture  
Dew Point 35 °F    
Average Humidity 82    
Maximum Humidity 93    
Minimum Humidity 65    
Precipitation  
Precipitation 0.01 in - - ()
Sea Level Pressure  
Sea Level Pressure 30.03 in    
Wind  
Wind Speed 11 mph ()    
Max Wind Speed 24 mph    
Max Gust Speed 33 mph    
Visibility 8.2 miles    
Events Rain    
Averages and records for this station are not official NWS values.
T = Trace of Precipitation, MM = Missing Value Source: Averaged Metar Reports

Daily Weather History Graph

Daily Weather History Graph

Search for Another Location

Airport or City:

Trip Planner

Search our weather history database for the weather conditions in past years. The results will help you decide how hot, cold, wet, or windy it might be!

Date:

Astronomy

Dec. 08, 2012 Rise Set
Actual Time 8:31 AM GMT 3:35 PM GMT
Civil Twilight 7:44 AM GMT 4:22 PM GMT
Nautical Twilight 6:55 AM GMT 5:11 PM GMT
Astronomical Twilight 6:09 AM GMT 5:57 PM GMT
Moon 1:45 AM GMT (12/8) 12:46 PM GMT (12/8)
Length of Visible Light 8h 38m
Length of Day
7h 03m
Waning Crescent, 30% of the Moon is Illuminated
Dec 8
Waning Crescent
Dec 13
New
Dec 20
First Quarter
Dec 28
Full
Jan 5
Last Quarter

Hourly Weather History & Observations

Time (GMT) Temp. Windchill Dew Point Humidity Pressure Visibility Wind Dir Wind Speed Gust Speed Precip Events Conditions
12:50 AM 35.6 °F 28.6 °F 30.2 °F 81% 30.09 in - West 9.2 mph - N/A   Clear
1:50 AM 37.4 °F 30.3 °F 30.2 °F 75% 30.09 in - West 10.4 mph - N/A   Clear
2:50 AM 33 °F - 29 °F 81% 30.13 in 25 mi WSW 6.9 mph - -   Scattered Clouds
2:50 AM 33.8 °F 27.7 °F 30.2 °F 87% 30.12 in 6.2 mi WSW 6.9 mph - N/A   Partly Cloudy
3:50 AM 33.8 °F 25.8 °F 28.4 °F 81% 30.12 in 6.2 mi WSW 10.4 mph - N/A   Scattered Clouds
4:50 AM 33.8 °F 28.6 °F 28.4 °F 81% 30.12 in - WSW 5.8 mph - N/A   Clear
5:50 AM 35 °F - 29 °F 71% 30.14 in 25 mi West 11.5 mph - -   Mostly Cloudy
5:50 AM 35.6 °F 27.5 °F 28.4 °F 75% 30.12 in - West 11.5 mph - N/A   Clear
6:50 AM 33.8 °F 25.8 °F 28.4 °F 81% 30.12 in - WSW 10.4 mph - N/A   Clear
7:50 AM 33.8 °F 27.0 °F 30.2 °F 87% 30.12 in - West 8.1 mph - N/A   Clear
8:50 AM 35 °F - 30 °F 77% 30.12 in 25 mi West 11.5 mph - -   Partly Cloudy
8:50 AM 35.6 °F 27.5 °F 30.2 °F 81% 30.12 in 6.2 mi West 11.5 mph - N/A   Mostly Cloudy
9:50 AM 35.6 °F 28.0 °F 32.0 °F 87% 30.09 in 6.2 mi WSW 10.4 mph - N/A Rain Light Rain
10:50 AM 35.6 °F 29.2 °F 32.0 °F 87% 30.06 in 6.2 mi WSW 8.1 mph - N/A   Overcast
11:50 AM 37 °F - 34 °F 84% 30.06 in 19 mi SW 8.1 mph - -   Partly Cloudy
11:50 AM 37.4 °F 31.4 °F 33.8 °F 87% 30.04 in 6.2 mi SW 8.1 mph - N/A   Mostly Cloudy
12:50 PM 39.2 °F 29.0 °F 37.4 °F 93% 30.01 in 6.2 mi West 21.9 mph - N/A   Mostly Cloudy
1:50 PM 41.0 °F 33.1 °F 37.4 °F 87% 30.01 in 6.2 mi West 15.0 mph - N/A   Mostly Cloudy
2:50 PM 41 °F - 39 °F 89% 30.01 in 19 mi West 15.0 mph - -   Partly Cloudy
2:50 PM 41.0 °F 33.1 °F 39.2 °F 93% 30.01 in 6.2 mi West 15.0 mph - N/A   Mostly Cloudy
3:50 PM 42.8 °F 36.2 °F 39.2 °F 87% 29.98 in 6.2 mi WSW 12.7 mph - N/A   Mostly Cloudy
4:50 PM 42.8 °F 35.4 °F 41.0 °F 93% 29.98 in 6.2 mi West 15.0 mph - N/A   Mostly Cloudy
5:50 PM 44 °F - 41 °F 85% 29.98 in 22 mi WSW 16.1 mph - -   Partly Cloudy
5:50 PM 44.6 °F 37.4 °F 41.0 °F 87% 29.98 in 6.2 mi WSW 16.1 mph - N/A   Mostly Cloudy
6:50 PM 44.6 °F 36.6 °F 39.2 °F 81% 29.95 in 6.2 mi West 19.6 mph - N/A   Scattered Clouds
7:50 PM 44.6 °F 35.7 °F 39.2 °F 81% 29.92 in 6.2 mi WSW 24.2 mph - N/A   Scattered Clouds
8:50 PM 44 °F - 39 °F 75% 29.92 in 19 mi West 19.6 mph - -   Scattered Clouds
8:50 PM 44.6 °F 36.6 °F 39.2 °F 81% 29.92 in - West 19.6 mph - N/A   Clear
9:50 PM 44.6 °F 36.9 °F 39.2 °F 81% 29.89 in 6.2 mi West 18.4 mph - N/A   Scattered Clouds
10:50 PM 42.8 °F 37.0 °F 37.4 °F 81% 29.89 in 6.2 mi WSW 10.4 mph - N/A   Mostly Cloudy
11:50 PM 46 °F - 38 °F 65% 29.86 in 25 mi West 21.9 mph - -   Partly Cloudy
11:50 PM 46.4 °F 38.5 °F 37.4 °F 71% 29.83 in - West 21.9 mph 33.4 mph N/A   Clear